Location: Earls Croome
(52.0667°N, 2.2000°W)
Time: 17:05:00
(UTC+00:00)

Tsikada Rocket - Pass Details

Date: 17 November 2019
Orbit: 958 x 1009 km, 82.9° (Epoch: 12 December)

Event Time Altitude Azimuth Distance (km) Brightness Sun altitude
Rises 06:20:07 0° 347° (NNW) 3,752 6.8 -10.9°
Reaches altitude 10° 06:22:44 10° 342° (NNW) 2,794 6.1 -10.5°
Maximum altitude 06:28:54 52° 269° (W) 1,231 4.2 -9.6°
Drops below altitude 10° 06:34:59 10° 195° (SSW) 2,749 6.4 -8.7°
Sets 06:37:32 0° 190° (S) 3,687 7.2 -8.3°
